Showing default

IRIDIUM 132, 42961

Orbit data source: Space-Track

IRIDIUM 132, 42961 is a payload satellite owned by Iridium (US) in LEO that was launched on Mon, 09 Oct 2017 UTC via an FALCON 9 launch vehicle from the Air Force Western Test Range (AFWTR). Payload-class satellites include a variety of spacecraft equipped with specific instruments for various scientific and technological missions. These include communications satellites like Starlink; space stations such as the ISS; scientific satellites like the Hubble; Earth observation satellites from companies like Planet Labs, Umbra, and HawkEye 360; GPS; miniature CubeSats for education and research; and military/defense satellites.

Loading next visibility...
Identifier
42961, 2017-061G
Orbit
LEO
Country
Flag of USUS
Related business
Manufacturer
OATK SSG Gilbert
Mission
Operational Commercial Communications
Bus & Motor
ELITEBUS, Unknown motor
Mass
860 kg wet, 700 kg dry
Launch date (UTC)
2017-10-09 (8 years ago)
Launch vehicle
FALCON 9
Launch site
Air Force Western Test Range (AFWTR)
Object type
Payload
Rocket body
Debris
Shape & HBR
Trap Box + 2 Pan, 4.8 m
Radar Cross Section
10.154 m², Large (>1 m²)

Expand to show TLE details & history
Last TLE update: 6 hours ago

TLE from 6 hours ago
0 IRIDIUM 132
1 42961U 17061G   26038.17331779  .00000029  00000-0  32802-5 0  9995
2 42961  86.3920  79.6193 0002194  90.8934 269.2513 14.34217357436183
Epoch: 2026-02-07T04:09Z
TLE epoch observation values (Epoch: 2026-02-07T04:09:34.657Z)
Latitude
-0.00002°
Longitude
-120.07575°
Altitude
780.74 km
Speed
7.463 km/s
True Right ascension
05h 18m 28s
True Declination
0° 00' 00"
Sunlit
Object was in full shadow at epoch
Visualization orbit readout
Latitude
Unknown
Longitude
Unknown
Altitude
Unknown
Speed
Unknown
Apparent Right ascension
Unknown
Apparent Declination
Unknown
Sunlit
N/A
Visualization observer readout
Local Sidereal Time
12:37:57
Azimuth
Unknown
Elevation
Unknown
Doppler factor
Unknown
Orbital elements
Apogee altitude
776.202 km
Perigee altitude
773.064 km
Semi-major axis
7,152.77 km
Eccentricity
0.00022
Inclination
86.392°
RAAN
79.6193°
Arg. of periapsis
90.8934°
True anomaly
269.22616°
Mean anomaly
269.2513°
Eccentric anomaly
269.23873°
Mean motion
3.58783 °/min
Orbital period
100.34 mins
BSTAR
0.0000032802
Loading maneuver chart data...
Computing Atmospheric mass density...
Loading historical data...
Loading historical data...
Loading historical data...
Loading historical data...
Loading historical data...
Loading historical data...
Loading historical data...

Documentation

Showing up to 5 results
|